#timestamp,LO_Frequency,Hit,StdDev 
1710583215.9,286046989.6,N
1710583235.7,286046987.3,N
1710583255.6,286046988.1,N
1710583275.4,286046988.3,N
1710583295.3,286046987.7,N
1710583315.1,286046989.4,N
1710583316.0,286046989.4,N
1710583335.8,286046989.9,N
1710583355.7,286046989.5,N
1710583375.5,286046995.3,N
1710583395.3,286046995.0,N
1710583415.2,286046998.5,N
1710583435.0,286046999.8,N
1710583435.9,286046999.8,N
1710583455.8,286046998.4,N
1710583475.6,286047001.8,N
1710583495.4,286047001.7,N
1710583515.3,286047002.9,N
1710583535.1,286047003.3,N
1710583555.8,286047003.3,N
1710583575.7,286047002.1,N
1710583595.5,286047000.7,N
1710583615.4,286046999.7,N
1710583635.2,286047002.1,N
1710583655.0,286047001.7,N
1710583655.9,286047001.7,N
1710583675.8,286047002.2,N
1710583695.6,286046997.7,N
1710583715.4,286046994.7,N
1710583735.3,286046994.3,N
1710583755.1,286046988.5,N
1710583775.9,286046988.1,N
1710583795.7,286046987.3,N
1710583815.5,286046987.3,N
1710583835.4,286046991.2,N
1710583855.2,286046987.5,N
1710583875.0,286046987.0,N
1710583875.9,286046987.0,N
1710583895.8,286046987.2,N
1710583915.6,286046988.1,N
1710583935.5,286046988.2,N
1710583955.3,286046985.3,N
1710583975.1,286046986.7,N
1710583995.9,286046988.1,N
1710584015.7,286046985.7,N
1710584035.5,286046991.6,N
1710584055.4,286046991.1,N
1710584075.2,286046989.4,N
1710584095.1,286046994.8,N
1710584096.0,286046994.8,N
1710584115.8,286046993.2,N
1710584135.6,286046986.9,N
1710584155.5,286046987.3,N
1710584175.3,286046987.6,N
1710584195.1,286046985.4,Y
1710584215.9,286046994.0,P
1710584235.7,286046996.0,N
1710584255.6,286046991.7,P
1710584275.4,286046994.4,N
1710584295.2,286046994.4,N
1710584315.1,286046991.9,Y
1710584316.0,286046991.9,P
1710584335.8,286046998.4,N
1710584355.6,286046997.7,N
1710584375.5,286046997.9,N
1710584395.3,286046997.3,N
1710584415.2,286046997.3,N
1710584435.9,286046999.7,N
1710584455.7,286047004.0,N
1710584475.6,286046999.7,N
1710584495.4,286047002.7,N
1710584515.2,286047004.3,N
1710584535.1,286047001.6,N
1710584536.0,286047001.6,N
1710584555.8,286047002.2,N
1710584575.7,286047004.4,N
1710584595.5,286047002.5,N
1710584615.3,286047001.0,N
1710584635.2,286047000.7,N
1710584655.0,286046998.3,N
1710584655.9,286046998.3,N
1710584675.8,286046997.4,N
1710584695.6,286046997.2,N
1710584715.4,286046997.7,N
1710584735.3,286046998.8,N
1710584755.1,286047000.7,N
1710584775.8,286046999.1,N
1710584795.7,286046996.2,N
1710584845.5,286046993.3,E
1710584855.5,286046996.6,N
1710584875.3,286046998.8,P
1710584895.1,286046999.0,N
1710584915.9,286047002.6,N
1710584935.7,286046999.8,N
1710584955.6,286047000.2,N
1710584975.4,286046998.2,N
1710584995.2,286047001.2,N
1710585015.1,286047001.7,N
1710585016.0,286047001.7,N
1710585035.8,286046998.7,N
1710585055.6,286046997.4,N
1710585075.5,286046996.5,N
1710585095.3,286046999.3,N
1710585115.2,286046999.5,N
1710585135.9,286047000.8,N
1710585155.7,286046998.5,N
1710585175.6,286047000.8,N
1710585195.4,286047004.4,N
1710585215.2,286047005.7,N
1710585235.1,286047003.3,N
1710585236.0,286047003.3,N
1710585255.8,286047002.8,N
1710585275.7,286047001.8,N
1710585295.5,286047003.7,N
1710585315.3,286047001.0,N
1710585335.2,286047001.0,N
1710585355.0,286047000.6,N
1710585355.9,286047000.6,N
1710585375.8,286046996.9,N
1710585395.6,286046995.7,N
1710585415.4,286047001.2,N
1710585435.3,286046997.6,N
1710585455.1,286046995.2,N
1710585475.8,286047004.0,N
1710585495.7,286047002.4,N
1710585515.5,286046998.8,N
1710585535.4,286046999.0,N
1710585555.2,286046997.3,N
1710585575.0,286046997.6,N
1710585575.9,286046997.6,N
1710585595.8,286046994.2,N
1710585615.6,286046990.1,Y
1710585635.4,286046988.9,P
1710585655.3,286046989.4,N
1710585675.1,286046990.2,N
1710585695.9,286046998.1,N
1710585715.7,286046996.7,N
1710585735.5,286046997.9,N
1710585755.4,286046996.0,N
1710585775.2,286046994.6,N
1710585795.0,286046990.3,N
1710585795.9,286046990.3,N
1710585815.8,286046990.7,N
1710585835.6,286046994.6,N
1710585855.5,286046996.3,N
1710585875.3,286046994.3,N
1710585895.1,286046995.7,N
1710585915.9,286047001.1,N
1710585935.7,286046999.9,N
1710585955.5,286047001.0,N
1710585975.4,286047002.6,N
1710585995.2,286047000.1,N
1710586015.1,286047000.8,N
1710586016.0,286047000.8,N
1710586035.8,286047000.1,N
1710586055.6,286046998.5,N
1710586075.5,286046999.2,N
1710586095.3,286046998.7,N
1710586115.1,286046997.3,N
1710586135.9,286046998.5,N
1710586155.7,286046998.8,N
1710586175.6,286047000.7,N
1710586195.4,286046999.1,N
1710586215.2,286046996.7,N
1710586235.1,286047000.0,N
1710586236.0,286047000.0,N
1710586255.8,286047004.2,N
1710586275.6,286047009.7,N
1710586295.5,286047008.5,N
1710586315.3,286047007.0,N
1710586335.2,286047007.9,N
1710586355.9,286047005.6,N
1710586375.7,286047000.9,N
1710586395.6,286046999.0,N
1710586415.4,286046998.6,N
1710586435.3,286046996.6,N
1710586455.1,286046999.1,N
1710586456.0,286046999.1,N
1710586475.8,286047000.9,N
1710586495.7,286047007.6,N
1710586515.5,286047008.1,N
1710586535.3,286047008.9,N
1710586555.2,286047005.8,N
1710586575.0,286047006.5,N
1710586575.9,286047006.5,N
1710586595.8,286047008.1,N
1710586615.6,286047001.4,N
1710586635.4,286047000.6,N
1710586655.3,286046996.9,N
1710586675.1,286046994.0,N
1710586695.8,286046995.9,N
1710586715.7,286046995.1,N
1710586735.5,286046996.2,N
1710586755.4,286046992.6,N
1710586775.2,286046989.0,N
1710586795.0,286046989.6,N
1710586795.9,286046989.6,N
